Fairfield, OH

10:45 AM EST on February 24, 2017 (GMT -0500)
Butler County Regional

Weather History for KHAO - November, 2012

Change the Weather History Date:

Sunday, November 25, 2012

  Actual Average (KLUK) Record (KLUK)
Temperature  
Mean Temperature 36 °F -  
Max Temperature 48 °F 51 °F 68 °F (1987)
Min Temperature 24 °F 32 °F 8 °F (1950)
Degree Days  
Heating Degree Days 29    
Moisture  
Dew Point 24 °F    
Average Humidity 65    
Maximum Humidity 88    
Minimum Humidity 39    
Precipitation  
Precipitation 0.00 in - - ()
Sea Level Pressure  
Sea Level Pressure 30.03 in    
Wind  
Wind Speed 2 mph (SW)    
Max Wind Speed 12 mph    
Max Gust Speed 18 mph    
Visibility 10 miles    
Events      
Averages and records for this station are not official NWS values.
T = Trace of Precipitation, MM = Missing Value Source: NWS Daily Summary

Daily Weather History Graph

Daily Weather History Graph

Search for Another Location

Airport or City:

Trip Planner

Search our weather history database for the weather conditions in past years. The results will help you decide how hot, cold, wet, or windy it might be!

Date:

Astronomy

Nov. 25, 2012 Rise Set
Actual Time 7:33 AM EST 5:16 PM EST
Civil Twilight 7:03 AM EST 5:46 PM EST
Nautical Twilight 6:30 AM EST 6:19 PM EST
Astronomical Twilight 5:58 AM EST 6:51 PM EST
Moon 3:32 PM EST (11/25) 4:47 AM EST (11/25)
Length of Visible Light 10h 42m
Length of Day
9h 43m
Waxing Gibbous, 93% of the Moon is Illuminated
Nov 25
Waxing Gibbous
Nov 28
Full
Dec 6
Last Quarter
Dec 13
New
Dec 20
First Quarter

Hourly Weather History & Observations

Time (EST) Temp. Windchill Dew Point Humidity Pressure Visibility Wind Dir Wind Speed Gust Speed Precip Events Conditions
12:53 AM 24.1 °F - 21.0 °F 88% 30.14 in 9.0 mi Calm Calm - N/A   Clear
1:53 AM 27.0 °F - 21.9 °F 81% 30.13 in 9.0 mi Calm Calm - N/A   Clear
2:53 AM 28.0 °F - 23.0 °F 81% 30.12 in 9.0 mi Calm Calm - N/A   Clear
3:53 AM 25.0 °F - 21.0 °F 85% 30.12 in 9.0 mi Calm Calm - N/A   Clear
4:53 AM 25.0 °F - 21.0 °F 85% 30.09 in 10.0 mi Calm Calm - N/A   Clear
5:53 AM 28.9 °F - 21.0 °F 72% 30.08 in 10.0 mi Calm Calm - N/A   Clear
6:53 AM 30.9 °F 25.2 °F 21.0 °F 67% 30.06 in 10.0 mi SSW 5.8 mph - N/A   Clear
7:53 AM 32.0 °F 25.6 °F 21.0 °F 64% 30.04 in 10.0 mi South 6.9 mph - N/A   Clear
8:53 AM 33.1 °F 27.7 °F 21.9 °F 64% 30.03 in 10.0 mi SSW 5.8 mph - N/A   Mostly Cloudy
9:53 AM 35.1 °F 31.0 °F 21.9 °F 59% 30.03 in 10.0 mi SSW 4.6 mph - N/A   Clear
10:53 AM 37.9 °F 33.5 °F 23.0 °F 55% 30.02 in 10.0 mi Variable 5.8 mph - N/A   Clear
11:53 AM 39.9 °F 33.9 °F 21.9 °F 49% 29.99 in 10.0 mi SW 9.2 mph - N/A   Clear
12:53 PM 45.0 °F 39.3 °F 24.1 °F 44% 29.96 in 10.0 mi WSW 11.5 mph 17.3 mph N/A   Clear
1:53 PM 46.9 °F - 24.1 °F 41% 29.94 in 10.0 mi WSW 10.4 mph 18.4 mph N/A   Clear
2:53 PM 48.0 °F - 24.1 °F 39% 29.93 in 10.0 mi SW 6.9 mph - N/A   Clear
3:53 PM 46.9 °F - 24.1 °F 41% 29.94 in 10.0 mi Variable 6.9 mph - N/A   Scattered Clouds
4:53 PM 45.0 °F 42.6 °F 25.0 °F 46% 29.96 in 10.0 mi WSW 4.6 mph - N/A   Scattered Clouds
5:53 PM 36.0 °F - 26.1 °F 67% 29.97 in 10.0 mi Calm Calm - N/A   Clear
6:53 PM 37.0 °F - 27.0 °F 67% 29.99 in 10.0 mi Calm Calm - N/A   Clear
7:53 PM 37.0 °F - 28.0 °F 70% 30.01 in 10.0 mi Calm Calm - N/A   Clear
8:53 PM 37.9 °F - 30.0 °F 73% 30.02 in 10.0 mi Calm Calm - N/A   Mostly Cloudy
9:53 PM 37.9 °F - 30.0 °F 73% 30.03 in 10.0 mi Calm Calm - N/A   Overcast
10:53 PM 37.9 °F - 30.9 °F 76% 30.05 in 10.0 mi Calm Calm - N/A   Clear
11:53 PM 36.0 °F - 30.0 °F 79% 30.06 in 10.0 mi Calm Calm - N/A   Clear